RH
34 30 49 81 99 98 100 77 62 46 37 28 22 15 12 10 10 10 9 13 14 15 17 19 21 21 21 20 19 17 17 16 19 23 23 25 27 28 26 19 16 15 15 14 12
33 36 63 91 98 99 99 83 68 63 49 41 37 31 28 23 24 23 22 23 25 26 25 23 23 21 19 16 14 15 16 15 16 20 22 23 22 19 18 14 13 15 14 12 11
65 79 85 93 99 100 100 89 79 73 64 58 51 44 42 36 35 39 36 31 28 23 21 18 16 14 13 14 14 15 16 14 15 17 18 18 16 15 12 10 11 10 10 10 9
99 97 98 74 98 100 100 94 90 84 76 65 59 52 47 42 38 37 34 28 24 20 16 16 17 17 13 14 15 15 15 15 15 15 14 14 14 12 11 10 10 10 10 10 10
92 89 94 60 96 100 98 93 94 92 84 75 66 58 50 45 37 35 29 24 21 17 16 16 17 16 16 14 14 14 13 13 13 13 12 12 11 11 11 12 14 14 13 13 12
95 66 74 85 98 100 97 96 96 91 85 77 68 58 51 45 32 32 27 22 19 20 19 17 16 15 14 13 12 12 13 13 13 12 12 12 12 14 15 14 12 10 8 8 7
96 94 68 99 100 98 97 96 97 93 87 75 64 54 45 34 32 28 24 20 18 16 15 15 13 12 12 12 13 13 13 12 12 13 15 16 14 12 12 12 16 13 14 14 15
88 96 99 94 99 95 94 93 89 84 81 66 54 44 35 25 29 24 20 17 15 14 13 13 13 13 14 14 13 13 13 14 16 18 16 12 11 13 20 23 17 16 19 22 25
100 97 98 98 94 95 92 93 76 79 63 51 39 29 25 21 21 18 16 16 15 14 15 15 15 14 14 13 13 14 16 13 11 12 16 21 12 25 27 30 19 24 26 30 35
98 99 100 96 95 94 90 86 77 67 52 41 33 27 23 24 21 20 19 18 17 16 15 15 14 14 14 12 9 9 11 18 23 33 27 26 15 18 27 21 27 32 24 23 30
87 90 88 90 83 81 78 73 66 59 49 36 31 24 25 22 20 19 18 16 16 15 14 14 13 9 10 15 20 22 26 28 34 37 28 30 23 21 24 30 26 18 13 12 12
99 98 82 84 81 70 52 44 39 34 29 28 25 22 20 18 16 14 14 10 9 8 8 10 16 20 24 32 35 33 33 37 37 40 43 31 28 29 25 21 15 11 8 8 8
82 95 90 78 58 45 34 28 24 22 24 23 21 19 18 18 16 15 16 15 15 17 18 20 26 33 34 33 30 31 34 41 49 44 42 38 30 26 19 15 12 9 7 9 18
72 60 56 49 38 28 28 25 24 23 22 25 24 24 23 20 19 20 19 18 20 22 24 29 34 36 34 31 32 35 37 44 50 57 55 51 51 29 23 20 11 9 7 11 22
60 59 53 50 45 36 31 29 28 23 42 25 27 23 20 22 22 22 23 22 25 28 34 34 40 40 36 34 31 35 35 45 59 75 69 60 65 26 28 24 11 7 6 7 9
37 37 35 30 27 26 24 21 19 15 28 21 24 25 24 25 30 32 30 31 29 31 30 32 32 34 35 34 32 29 34 45 78 83 80 70 68 28 29 20 10 8 7 8 8
28 26 23 20 19 20 18 19 15 20 20 20 23 26 25 31 33 32 29 27 27 30 28 31 31 33 34 33 32 31 30 49 65 79 74 67 74 23 27 19 10 9 7 7 8
23 20 18 18 17 15 14 14 14 22 24 21 27 28 30 30 30 29 27 29 27 29 28 31 28 33 38 36 38 40 37 54 60 90 84 67 65 23 16 14 13 10 8 7 8
17 16 16 15 13 11 11 9 14 15 17 24 28 31 32 32 37 36 39 39 33 27 24 31 30 33 32 36 38 43 50 47 66 84 93 50 29 12 12 12 14 11 9 8 8
15 12 11 9 9 8 9 10 14 18 22 25 25 29 30 30 32 30 35 37 29 24 19 24 29 28 34 39 40 46 45 55 49 65 55 39 32 8 9 8 8 8 8 8 9
13 11 10 10 9 9 8 12 14 18 21 26 27 28 29 27 23 20 28 25 26 20 18 19 24 28 33 31 40 46 51 51 54 64 89 88 22 4 5 6 8 9 10 10 9
9 10 10 8 12 9 10 11 14 16 18 19 18 18 18 17 14 16 21 24 23 20 19 18 18 16 18 24 33 50 70 67 57 42 68 84 30 6 6 7 10 12 12 13 9
8 8 8 8 9 11 12 14 15 16 17 17 14 14 14 13 14 16 17 19 18 19 24 24 29 25 15 33 38 50 38 53 69 72 65 66 19 8 9 11 13 13 13 11 7
14 8 8 7 8 8 8 9 10 11 10 11 12 12 12 12 12 14 14 15 18 19 20 25 26 22 15 14 19 27 29 34 56 76 53 42 15 8 11 12 13 12 12 8 7
31 19 17 11 9 8 9 9 10 11 10 10 10 10 11 11 11 11 14 15 15 17 19 26 22 19 19 16 18 21 25 33 44 45 60 11 15 6 11 10 8 7 8 8 9
81 69 42 21 18 22 23 22 20 11 11 12 12 12 14 14 19 18 16 16 18 17 22 29 30 30 22 11 17 18 13 18 23 28 30 12 12 10 10 11 9 9 8 8 10
92 88 88 83 73 60 40 29 24 24 26 31 32 35 31 20 17 17 17 15 18 22 29 48 52 45 30 22 20 13 11 11 11 11 12 17 7 9 8 9 8 8 8 8 10
Wind_Speed
23 21 21 34 23 40 30 36 33 33 32 30 28 27 27 25 24 24 23 21 18 18 16 15 14 14 13 13 13 13 12 11 13 13 14 13 14 14 14 16 17 17 20 22 23
20 19 16 31 23 39 36 36 35 32 30 30 29 28 27 25 23 20 20 19 17 15 14 14 14 14 13 13 13 12 13 11 13 15 13 14 15 16 16 17 18 21 24 26 25
18 21 19 19 37 35 45 38 35 32 30 30 29 27 25 24 22 19 17 17 16 16 15 14 13 13 13 12 12 13 13 13 12 14 14 16 17 18 18 17 20 22 23 26 27
20 22 15 17 20 45 40 37 34 32 30 29 28 26 23 22 18 17 16 16 16 16 16 15 14 12 12 11 12 11 13 12 12 13 15 17 18 20 19 17 23 22 23 25 27
22 21 19 23 39 41 45 41 32 30 27 26 25 24 22 20 13 18 16 16 16 16 15 14 12 10 10 10 10 11 12 12 13 14 16 17 19 21 19 23 24 25 26 26 29
26 22 19 29 38 43 41 39 33 27 25 24 23 22 20 17 12 17 16 15 15 15 13 12 11 10 9 9 9 9 10 12 14 16 18 18 20 23 23 23 24 24 25 28 29
33 19 17 42 40 41 37 32 29 27 24 20 19 19 18 17 14 16 15 14 12 12 11 11 9 8 8 7 9 10 11 12 15 17 18 20 20 21 22 18 18 21 24 25 26
18 29 45 47 38 36 32 27 25 23 20 18 17 17 16 15 15 15 14 12 11 10 8 7 6 6 6 7 8 10 13 13 13 17 20 21 21 18 21 19 22 23 24 25 27
33 43 48 43 41 34 29 25 22 21 19 17 16 15 16 13 13 13 11 10 9 7 6 5 4 5 5 6 8 9 10 13 15 15 18 20 21 8 22 26 23 21 20 21 22
48 41 39 37 31 26 24 24 22 19 19 18 15 14 15 14 13 12 10 9 7 5 4 3 3 4 6 7 6 7 10 11 14 16 20 22 22 15 17 20 15 12 12 16 17
44 41 35 33 30 27 22 21 21 20 19 14 13 12 14 12 10 8 8 7 5 4 3 4 4 3 3 4 4 7 10 15 15 19 19 21 21 10 11 7 7 10 12 14 14
32 34 33 28 26 24 20 17 17 22 25 22 18 15 14 11 10 8 6 6 5 4 4 4 3 2 2 3 6 8 11 12 12 15 22 16 12 0 1 3 8 10 13 16 18
34 31 26 26 21 20 20 22 25 26 27 22 19 17 15 12 11 10 9 9 8 7 5 4 3 0 2 4 8 10 8 13 18 22 14 13 2 3 4 7 10 12 15 17 19
29 29 24 23 23 24 20 16 15 15 13 12 12 11 13 13 10 8 7 5 5 4 4 2 1 1 2 5 9 8 12 16 21 17 6 12 6 9 4 10 12 14 17 17 16
23 21 18 17 16 14 9 9 6 4 5 5 10 9 5 5 8 6 5 5 3 2 1 2 1 2 4 6 11 9 16 18 16 10 11 4 5 5 4 10 14 14 14 16 18
18 17 15 13 11 7 4 2 3 3 4 5 8 7 8 8 7 7 5 4 3 0 1 2 4 5 5 7 11 14 15 17 9 8 2 2 4 5 4 10 13 15 16 16 18
12 10 10 7 7 5 3 2 3 5 9 7 7 6 7 8 7 6 5 5 4 1 3 5 4 5 6 7 9 13 15 5 4 2 4 5 9 5 5 9 12 15 15 17 19
6 5 2 4 4 3 2 4 5 6 6 10 7 6 6 6 4 3 3 3 4 4 5 4 1 3 5 7 6 10 8 2 4 2 6 12 8 3 10 8 10 14 13 16 18
1 1 3 3 4 7 9 7 7 9 10 9 7 5 4 3 2 1 1 1 3 6 6 4 3 6 7 6 6 5 4 4 4 5 5 6 10 16 8 8 10 14 16 19 21
2 2 3 4 5 6 9 11 9 10 8 5 3 2 2 1 1 3 2 1 3 5 8 5 6 6 7 8 9 8 5 3 3 2 5 8 13 12 8 10 13 16 19 21 21
1 2 5 7 6 6 9 10 10 7 6 4 3 2 1 2 3 3 2 4 4 7 11 11 4 5 7 5 6 7 7 4 4 3 3 4 9 10 12 10 14 20 24 25 22
5 3 3 3 3 4 5 5 5 4 3 2 1 1 2 4 5 4 3 3 6 9 9 6 8 8 9 11 12 11 12 10 5 4 7 4 18 5 6 12 25 24 27 29 23
5 6 4 4 4 4 4 3 2 2 2 2 3 4 5 5 3 4 5 5 9 6 6 9 5 8 4 4 10 15 13 16 18 17 16 4 12 7 13 27 27 30 29 25 21
5 4 5 5 6 5 5 5 3 4 5 5 6 7 8 7 7 6 8 7 7 10 12 13 12 12 13 15 20 25 24 19 20 16 20 36 45 24 28 31 27 24 23 21 19
5 3 5 6 7 7 6 7 8 8 8 7 7 9 9 8 10 13 9 10 15 14 15 13 20 22 26 24 29 36 36 34 37 37 30 39 40 27 27 19 20 19 19 18 16
5 6 5 7 7 7 8 7 9 9 10 11 11 13 13 14 12 17 18 17 16 16 16 19 18 27 40 25 18 26 28 33 33 37 45 42 40 25 22 23 18 19 19 17 21
7 7 8 6 5 7 6 7 8 10 11 9 11 15 17 16 18 19 21 22 23 25 25 26 22 20 17 16 27 27 1 4 12 14 19 30 24 15 12 16 20 20 20 21 27
Wind_Direction
171 179 181 202 183 162 158 161 166 168 166 160 158 161 161 166 165 167 170 171 176 178 183 186 190 195 201 207 212 218 224 228 230 231 238 248 256 262 272 281 284 290 286 283 283
162 160 167 194 164 155 160 163 165 164 159 156 155 159 160 163 163 167 169 172 174 182 193 200 203 207 208 210 213 216 224 231 232 240 248 256 260 268 272 274 284 286 285 284 286
134 137 157 166 150 159 157 163 162 157 156 157 157 159 161 165 166 168 175 178 185 188 191 193 196 193 199 202 210 218 227 233 236 246 255 260 265 270 277 283 276 277 280 284 288
128 133 144 166 156 140 154 160 158 156 158 156 157 160 162 168 166 176 180 185 187 186 185 184 186 196 198 209 223 236 245 249 251 257 266 273 279 284 289 284 283 286 280 279 277
127 117 112 150 152 145 155 155 155 153 155 157 158 162 167 173 179 182 187 187 184 183 185 184 190 198 209 220 236 244 254 262 269 273 276 279 283 286 292 289 287 287 284 281 279
102 123 123 152 145 144 148 152 151 149 153 158 160 166 172 177 181 182 188 189 188 187 185 187 193 201 216 228 241 256 261 273 281 282 282 285 289 294 296 288 284 289 290 290 294
86 114 146 136 127 140 146 147 148 154 155 160 164 167 172 175 173 178 181 185 187 192 191 197 205 214 228 244 257 270 277 284 286 284 287 294 295 294 290 279 292 291 296 297 296
79 118 128 135 133 138 148 150 158 158 152 157 164 168 170 169 169 173 172 176 182 190 200 208 219 235 250 263 271 281 287 286 285 288 293 298 305 299 293 300 303 301 298 295 295
98 124 128 139 138 143 147 150 149 148 151 152 154 152 152 151 157 162 163 167 170 180 191 205 222 244 262 274 283 281 279 285 289 292 295 298 304 284 304 295 301 297 295 298 301
95 116 119 127 130 133 134 134 136 142 148 144 146 136 145 143 144 143 148 153 156 168 186 212 234 259 277 278 266 274 289 293 300 297 300 300 302 298 288 286 297 313 325 321 312
108 119 117 126 125 124 124 127 127 129 139 133 140 142 138 138 136 141 147 148 154 166 197 216 226 240 257 274 275 289 299 301 310 303 314 311 308 289 270 298 324 333 333 336 340
104 121 119 118 118 113 109 114 123 123 119 115 116 122 119 120 123 130 137 133 139 154 167 160 157 182 262 305 314 317 315 314 314 314 313 311 320 268 66 353 330 330 334 345 353
99 110 113 109 102 101 99 107 112 113 101 102 108 111 112 111 114 117 117 120 123 138 149 182 159 125 355 340 330 322 318 321 316 318 316 328 162 124 19 350 350 352 354 359 1
107 110 111 112 104 112 114 115 109 105 96 93 99 104 112 114 108 114 129 143 144 153 156 150 182 166 346 333 336 329 331 323 318 320 322 334 293 235 321 353 359 0 2 3 357
102 110 115 115 115 122 114 123 101 90 68 82 90 108 117 118 118 105 121 119 129 135 186 229 182 280 317 331 344 332 330 321 316 314 318 288 304 226 267 346 356 356 352 356 354
111 115 120 114 98 91 89 110 85 72 72 117 113 106 101 103 105 96 96 93 54 172 355 270 280 286 307 324 336 334 331 318 301 306 318 223 326 252 264 340 347 351 350 350 351
126 125 116 84 35 18 6 103 77 65 125 131 129 123 118 113 108 97 89 68 46 310 303 291 270 287 298 309 320 333 341 332 344 352 221 287 289 231 305 326 339 350 346 347 348
122 125 109 334 1 17 45 98 66 126 136 141 140 131 132 120 110 94 88 68 38 15 345 340 313 274 293 304 309 327 358 36 245 310 287 278 236 240 304 292 326 342 344 344 343
146 293 327 0 52 86 94 80 107 115 132 140 133 134 120 117 144 45 24 57 19 14 11 337 289 274 277 282 299 308 321 321 271 277 290 278 286 294 236 290 316 343 346 344 341
76 79 67 89 96 98 95 100 115 118 124 134 148 131 119 84 6 351 342 317 340 342 348 320 300 257 258 271 274 257 277 297 297 13 302 284 282 250 255 302 328 336 343 338 332
47 93 106 113 102 88 90 99 101 100 100 101 93 86 38 344 329 320 271 301 288 323 329 326 287 276 276 263 260 256 250 253 275 238 197 298 278 262 283 299 331 331 328 328 324
357 353 53 75 52 69 64 67 82 73 63 41 17 353 314 315 314 298 260 272 293 306 316 301 289 280 281 277 265 256 244 244 234 237 235 262 278 284 250 302 327 323 321 319 319
313 319 320 340 8 3 8 27 15 339 323 297 297 286 284 289 295 257 272 271 291 285 298 309 282 303 276 260 260 256 266 257 251 258 249 211 261 298 307 311 314 313 309 309 314
318 293 287 290 303 313 323 315 313 310 309 297 291 293 294 301 290 275 281 293 290 297 304 297 271 256 257 282 286 278 276 267 247 240 246 248 285 311 312 312 310 303 300 303 310
348 296 292 284 289 290 288 288 294 292 288 291 294 296 293 295 300 288 282 292 295 290 293 282 284 291 289 291 288 282 273 262 250 249 247 278 282 319 324 321 321 313 300 298 308
339 333 322 304 297 293 293 291 291 283 286 289 287 285 285 288 283 282 286 291 295 289 286 285 287 298 298 308 285 285 284 275 266 259 259 274 283 326 315 309 304 303 300 295 312
304 301 310 305 302 299 297 299 295 294 293 291 295 295 294 292 285 284 284 286 282 277 278 280 283 297 296 301 304 298 20 309 312 279 284 269 311 338 326 321 304 303 297 298 311